Theta_e
352 353 354 353 353 353 352 353 350 347 347 348 350 350 350 350 351 352 351 351 351 352 353 354 354 354 353 353 352 353 353 353 353 353 354 355 358 361 367 365 363 362 362 362 362 360 361 359 360 359 359 358 358 358 360 360 360 361 361 361 361 361 360 360 360 359 357 357 357 357 357 357 357 357 358 359 359 358 358 358 358 358 359 359 358
353 354 353 353 353 353 352 352 351 348 346 344 349 351 350 350 350 351 351 351 351 352 355 354 354 354 353 352 352 352 353 352 353 353 354 356 358 360 367 367 364 363 363 362 362 362 361 359 359 360 360 359 358 358 359 360 361 361 360 361 361 361 361 361 361 360 358 357 357 357 357 357 357 358 359 359 358 359 358 358 358 357 356 359 359
354 353 353 353 353 352 352 352 351 350 349 348 350 351 351 350 350 350 351 351 351 353 353 353 353 353 353 353 352 353 351 353 352 352 353 356 357 360 364 368 366 364 363 363 363 363 362 362 360 361 361 360 359 359 359 360 360 360 360 360 360 362 361 361 361 361 360 357 356 356 356 356 356 357 358 358 358 359 359 358 358 358 357 357 357
354 353 352 352 352 352 352 352 351 352 352 351 349 350 351 351 351 351 351 352 351 352 353 352 352 352 352 352 352 352 351 351 350 350 352 355 357 359 361 366 367 365 364 363 363 363 363 362 362 361 362 361 361 360 359 360 360 361 360 360 360 362 362 361 361 361 360 358 357 356 356 355 354 355 356 356 357 358 358 359 359 358 358 358 358
353 352 352 351 352 352 351 352 352 353 352 352 350 349 350 350 351 352 351 351 351 351 352 352 351 352 352 352 353 352 352 351 352 350 350 354 356 358 360 363 366 366 365 364 363 363 363 363 363 363 363 362 362 362 361 360 360 360 361 360 361 360 361 362 361 361 361 361 358 356 357 357 356 356 355 355 355 356 357 358 358 359 359 359 358
352 352 352 351 351 352 351 351 352 353 353 352 351 349 349 350 350 351 351 351 350 350 351 350 351 352 352 352 353 353 352 350 350 349 349 353 355 357 359 361 364 365 364 365 364 364 364 364 364 363 363 363 363 362 362 362 362 360 361 361 362 362 361 362 362 361 362 361 360 358 356 355 355 354 354 354 354 354 355 357 358 358 359 359 358
352 351 351 351 351 351 351 351 352 352 351 352 351 351 351 350 350 349 350 351 351 352 351 351 350 350 351 353 352 352 352 350 349 348 348 353 356 356 358 360 362 363 364 364 365 364 365 365 365 364 364 363 363 364 363 363 363 362 362 362 362 362 363 362 362 362 360 360 361 359 357 357 355 354 354 354 353 353 355 356 357 359 359 358 358
353 353 351 352 351 351 351 352 352 351 351 351 352 350 350 350 351 351 348 349 350 350 351 351 350 350 352 352 352 353 351 350 348 346 347 353 356 356 358 359 361 362 364 363 364 364 365 365 364 365 364 364 363 364 364 364 363 363 363 363 363 362 363 363 364 363 362 359 362 362 358 356 355 356 355 354 353 352 354 355 355 359 358 358 359
353 353 352 351 351 351 352 352 352 351 350 351 351 351 350 350 350 351 351 348 348 348 350 351 350 351 351 351 351 352 350 350 349 346 347 353 355 356 357 359 360 363 362 361 362 364 364 365 365 366 365 365 364 364 364 365 364 364 364 364 364 363 362 363 364 364 364 361 362 363 361 359 357 356 356 355 354 354 354 355 355 355 357 356 356
353 353 352 352 352 352 352 352 352 351 350 350 350 351 351 351 350 351 351 350 348 348 348 349 349 349 349 348 349 349 349 348 347 356 352 352 354 356 358 359 360 360 361 361 361 362 362 364 365 366 367 366 366 365 365 365 365 364 364 364 364 364 363 363 364 364 365 364 363 363 363 361 359 356 357 356 356 354 354 354 354 355 355 356 355
352 353 352 352 352 352 352 352 353 351 350 350 349 350 351 351 350 350 353 351 350 350 349 349 348 347 347 347 347 347 347 347 354 354 353 352 353 355 356 358 359 360 361 361 361 360 361 362 363 365 365 366 366 366 365 365 365 365 365 365 363 364 364 364 363 365 364 365 364 364 364 363 361 358 356 357 356 355 355 354 354 354 355 356 357
353 353 352 352 352 352 352 352 352 352 350 349 348 349 349 349 350 349 349 351 354 352 351 349 348 347 346 346 345 346 348 352 350 349 352 351 354 357 356 357 358 359 360 361 361 360 360 360 361 362 365 366 366 367 366 366 365 365 365 365 365 365 365 364 364 364 364 364 362 363 363 362 362 360 358 356 357 357 355 354 354 354 356 356 357
352 352 351 352 352 352 352 352 352 352 350 349 350 350 350 351 350 352 350 348 348 350 350 350 347 345 344 344 346 350 352 350 348 349 348 350 353 354 356 356 356 356 358 360 360 360 360 360 360 361 362 364 366 367 367 367 366 366 365 365 365 366 366 366 366 364 364 365 363 363 363 363 363 361 360 358 357 358 356 355 355 354 354 354 355
353 351 352 351 351 351 351 351 351 352 352 352 351 352 352 351 350 348 351 350 348 349 348 348 341 341 337 340 344 346 351 348 348 349 351 351 352 352 355 354 355 355 355 357 358 358 358 359 359 359 361 363 364 365 367 367 367 367 366 365 365 366 366 366 366 366 366 365 364 365 364 364 362 361 361 360 358 357 357 356 356 355 354 354 354
353 352 351 351 352 351 351 351 352 352 352 350 351 351 351 350 350 348 346 347 349 350 349 349 343 341 342 341 336 334 343 346 348 349 354 353 355 352 353 353 354 354 355 355 356 357 357 358 358 359 361 363 364 364 365 366 368 367 368 368 367 366 366 366 366 366 366 366 366 365 365 364 363 363 362 361 360 358 358 358 357 356 355 354 354
353 352 352 351 351 351 352 351 351 353 352 350 349 350 350 350 349 349 348 344 345 347 352 349 347 339 334 336 335 336 331 335 339 345 350 355 356 351 352 352 353 353 355 354 354 356 357 359 359 360 361 362 363 363 362 363 366 368 368 369 369 368 367 367 367 367 367 367 366 365 365 365 365 364 362 362 361 360 358 358 357 356 355 355 355
354 354 354 351 352 352 352 352 352 352 353 351 349 350 350 351 350 349 348 346 344 345 351 348 346 345 343 334 333 332 331 335 338 343 347 349 350 353 353 351 351 352 354 353 354 356 355 354 358 361 362 362 362 362 362 362 364 368 369 370 370 369 369 368 368 368 368 366 366 366 365 365 365 365 363 362 361 361 360 358 358 357 356 355 355
354 355 355 354 352 352 353 352 352 352 353 352 351 350 350 350 350 349 348 348 348 344 343 350 348 349 345 346 344 337 335 338 336 335 346 351 349 349 352 353 352 352 353 353 352 352 355 355 356 357 361 363 363 362 363 363 367 367 370 370 370 371 370 370 369 369 368 367 367 366 366 365 365 365 364 363 362 361 361 360 359 358 357 356 356
354 355 355 356 354 354 354 353 353 353 354 353 351 350 350 350 352 350 349 350 348 345 344 343 348 347 349 345 347 346 344 340 337 335 335 344 344 346 347 349 351 351 351 351 351 351 352 354 354 354 356 360 362 363 364 365 365 367 367 367 368 371 371 371 370 370 369 368 367 367 367 366 365 366 365 364 363 361 361 361 360 359 358 357 356
353 354 355 356 356 354 355 354 353 353 354 352 351 351 352 352 354 352 352 352 349 346 344 344 342 345 349 347 349 350 344 343 341 339 339 335 341 344 346 347 347 347 350 350 350 350 350 350 351 353 355 356 361 363 364 365 366 368 368 369 369 370 371 371 371 370 370 369 368 367 367 366 366 366 366 365 363 362 362 361 360 359 358 358 357
354 353 353 355 357 355 354 354 353 353 356 354 352 352 351 351 352 353 351 351 350 349 347 344 343 344 350 345 345 346 345 345 344 345 341 337 335 336 340 342 345 346 346 347 348 350 352 351 349 351 355 357 360 362 362 364 365 367 367 369 370 371 371 371 372 371 371 371 370 368 367 366 366 367 366 366 365 364 363 362 360 360 359 358 357
353 353 353 354 355 356 354 354 354 353 357 354 353 352 352 352 352 352 353 352 352 351 347 346 347 347 345 346 344 345 344 341 342 343 341 341 338 338 338 339 339 343 345 345 346 347 349 349 350 352 354 356 358 361 363 363 365 364 365 367 370 371 371 372 372 372 372 372 371 369 368 367 367 367 367 366 365 365 363 362 361 361 360 359 358
352 352 352 353 354 356 354 354 354 356 357 354 353 353 352 353 352 353 354 352 351 352 354 352 351 349 345 344 344 341 342 341 341 342 341 340 340 339 339 339 340 337 346 346 350 349 350 350 351 351 355 355 357 360 363 364 364 364 365 366 369 371 372 371 371 371 372 372 371 370 370 369 368 367 367 366 366 366 364 363 362 361 361 360 359
351 351 351 352 353 354 356 354 354 354 354 355 354 354 354 353 352 353 354 354 353 354 352 352 353 352 350 346 344 344 342 343 342 344 343 343 341 340 339 341 340 340 342 353 354 352 351 352 351 352 355 356 358 360 362 363 365 366 367 367 367 370 372 372 372 372 371 371 371 371 370 370 369 368 367 367 366 366 366 365 364 363 361 361 360
350 350 351 351 353 353 354 354 353 354 355 355 355 355 354 353 352 351 353 354 353 353 352 351 352 352 352 351 348 346 344 343 345 345 345 344 343 340 342 341 340 340 344 347 349 350 350 349 352 350 354 358 357 360 361 362 364 366 368 366 367 367 370 372 373 373 371 371 371 371 370 368 369 369 368 368 367 367 366 366 365 364 363 362 362
350 350 351 352 353 353 355 355 355 355 355 354 355 355 354 352 352 352 351 353 354 354 354 353 353 353 354 352 348 348 348 345 346 346 343 342 341 340 343 341 341 341 344 348 346 343 349 349 350 351 352 356 358 361 362 362 362 363 366 367 365 364 367 370 372 373 372 371 371 371 370 369 368 369 369 369 368 367 367 366 366 365 364 364 363
351 352 353 352 352 353 353 354 354 354 355 355 355 355 356 354 354 353 354 353 353 354 352 352 351 351 352 353 353 349 348 348 347 345 346 344 343 343 342 339 338 337 344 345 345 344 342 347 352 350 351 358 358 361 362 363 362 363 365 368 367 361 362 364 367 371 372 371 371 370 370 369 368 368 368 367 368 367 367 366 366 366 364 364 364
352 352 351 352 352 352 354 354 355 354 353 354 354 354 354 353 352 353 352 354 352 352 353 352 351 352 352 353 352 351 350 347 347 347 346 347 347 345 344 343 338 336 337 337 340 344 346 346 352 351 351 353 355 358 360 360 361 363 365 367 367 364 359 360 363 367 370 371 371 371 371 370 369 369 368 368 368 368 367 367 367 367 366 365 365
351 352 351 352 353 352 352 353 354 354 353 354 354 355 355 354 352 352 351 353 355 353 352 353 353 352 352 351 351 351 350 349 347 347 348 349 347 347 345 343 342 339 337 337 340 338 347 345 346 358 350 351 354 354 358 361 361 361 364 366 364 366 358 355 358 360 362 366 367 368 370 371 370 370 369 369 368 368 367 368 368 368 367 366 366
352 352 351 351 352 354 352 352 353 353 353 352 353 354 354 353 353 353 352 354 353 354 354 353 353 353 354 353 352 350 351 349 348 348 350 350 347 346 345 344 346 341 340 336 337 339 344 347 345 353 355 353 350 353 355 357 359 361 362 362 363 363 355 354 355 355 356 358 361 364 368 370 370 370 370 370 369 369 368 367 367 367 367 367 366
352 353 352 351 351 352 353 352 352 352 352 352 353 354 354 353 352 352 353 353 352 352 354 354 354 354 355 353 353 350 350 348 349 346 348 349 348 347 346 344 344 344 342 341 336 343 339 344 347 349 351 353 353 353 355 356 357 359 362 362 364 360 357 358 354 353 353 353 355 358 363 367 370 371 371 370 370 370 370 369 369 369 368 368 367
348 350 350 352 351 350 351 351 351 351 351 351 352 352 353 353 352 352 352 353 351 351 351 353 353 354 354 353 354 353 352 351 349 347 347 349 350 348 346 345 345 344 345 341 337 337 345 343 347 350 350 351 356 355 356 359 360 358 363 363 365 360 363 363 354 352 352 351 351 352 354 358 363 368 370 371 371 371 370 370 370 370 369 369 368
348 348 349 348 350 350 350 352 351 352 352 351 351 353 352 352 353 353 354 353 351 351 352 351 352 353 354 353 354 353 353 350 350 349 347 346 349 348 349 346 343 343 343 340 338 338 345 348 348 350 352 350 352 358 357 356 361 363 360 364 365 364 365 365 364 352 349 349 349 349 349 350 354 359 364 367 369 370 370 370 370 369 369 369 368
348 347 348 348 351 351 350 349 353 352 350 350 351 351 351 350 351 351 352 353 352 352 352 351 352 352 353 353 352 352 353 351 349 348 347 346 346 346 347 346 346 345 345 343 341 342 340 348 349 350 349 352 350 357 358 356 356 361 362 363 364 364 363 364 364 362 350 348 347 347 346 346 348 350 353 358 363 366 367 367 368 366 363 363 362
348 348 349 348 347 347 345 345 346 348 348 350 351 350 349 349 348 350 351 352 352 351 350 351 351 352 351 352 351 352 351 349 349 348 348 346 346 347 345 346 345 345 347 347 347 344 343 344 348 346 351 352 351 353 355 358 360 360 360 360 362 363 363 361 361 360 350 347 347 346 345 344 344 345 347 348 351 355 358 360 359 353 351 352 350
346 348 348 346 345 344 343 344 345 346 349 349 350 348 347 348 348 348 350 351 351 351 351 351 351 351 351 351 350 351 351 350 350 349 349 348 347 348 346 347 346 345 347 349 349 346 346 344 348 347 351 349 351 351 353 357 356 358 357 359 359 360 361 361 360 360 355 348 346 345 345 344 343 342 342 343 345 348 349 344 342 342 341 341 341
345 346 347 347 345 344 343 342 343 345 346 347 347 347 347 348 349 348 350 351 351 351 351 351 353 352 351 351 351 351 351 349 349 348 349 348 347 347 346 347 346 345 345 347 349 348 346 344 346 349 351 351 351 352 355 354 356 357 357 358 356 359 360 359 359 359 353 350 348 346 345 345 343 342 340 340 339 339 338 337 336 336 336 336 336
344 345 345 345 345 344 344 345 345 345 346 346 346 346 347 349 350 351 351 352 351 351 350 350 351 352 351 351 351 351 350 348 348 349 349 348 348 346 346 347 347 347 347 347 348 348 346 346 346 347 350 351 353 355 355 355 353 353 354 355 355 356 357 356 357 356 358 359 360 360 350 346 344 341 340 340 338 337 336 336 335 335 334 333 332
345 345 344 343 345 344 344 345 345 346 347 348 347 346 346 347 348 350 350 351 351 351 351 350 350 350 350 350 351 351 351 350 348 348 349 348 347 348 349 347 348 346 346 346 347 346 346 345 345 346 347 349 350 350 355 354 353 353 353 352 351 354 354 356 358 356 357 355 353 350 353 354 351 352 344 337 335 335 335 335 336 336 337 335 331
345 346 345 344 345 347 346 346 346 347 348 348 349 348 348 348 348 348 347 348 349 350 350 351 350 350 350 350 350 351 351 352 351 350 350 349 349 347 348 348 348 346 345 345 345 345 344 343 343 344 345 346 349 349 352 352 352 351 351 351 348 351 351 353 353 356 356 355 355 352 350 349 349 348 341 340 339 338 337 337 337 338 339 338 334
346 346 347 347 347 348 349 348 348 348 348 347 347 346 346 346 348 345 344 344 345 348 349 349 350 350 350 350 350 350 353 356 357 356 353 353 349 348 349 349 348 347 346 346 345 344 344 343 343 344 342 344 345 347 348 349 349 348 355 351 351 353 353 352 355 353 352 355 356 353 355 358 358 360 360 359 359 348 347 340 343 341 341 338 334
351 351 349 349 349 349 348 348 348 348 348 347 350 350 349 348 344 344 343 343 344 346 349 349 349 350 350 350 351 355 356 357 359 360 359 359 358 352 350 349 348 347 346 345 345 344 343 342 341 342 341 340 341 345 346 349 351 352 349 350 349 351 351 352 352 355 355 354 354 356 359 359 359 362 360 360 362 360 360 357 355 350 343 336 333
353 353 353 351 351 351 350 349 348 348 348 348 349 339 339 346 345 342 343 343 343 344 345 346 346 348 349 350 351 354 357 358 357 361 361 362 361 360 359 358 354 349 346 344 344 344 344 342 343 342 341 341 343 345 344 347 350 348 349 351 349 350 348 346 344 355 354 355 355 355 359 359 359 359 362 360 361 361 359 360 345 340 337 335 334
352 353 352 352 352 352 352 351 351 351 351 352 340 339 339 339 348 346 345 344 344 344 344 344 345 346 347 348 349 351 352 354 355 357 359 363 363 362 362 362 360 358 354 350 347 344 343 342 342 342 342 341 343 346 344 345 347 348 350 350 350 349 348 347 348 345 356 354 353 354 356 358 355 358 358 357 359 360 358 349 341 338 336 335 334
351 350 350 351 351 351 351 350 350 351 352 351 339 337 337 336 339 350 347 346 344 344 345 344 345 345 346 346 347 349 349 356 357 355 355 357 362 362 363 363 363 360 345 344 349 350 348 344 343 343 343 344 344 345 346 349 354 348 350 347 349 349 349 348 349 349 354 354 355 353 350 353 356 354 352 356 357 358 357 343 338 337 336 334 333
349 349 349 349 350 350 350 350 350 352 352 352 338 336 335 334 334 344 348 347 346 346 345 345 346 345 346 346 346 347 349 351 354 354 354 354 355 358 360 360 360 361 359 347 345 348 351 347 346 344 347 348 345 347 352 352 351 348 350 347 350 348 348 346 354 354 355 353 351 353 348 350 354 352 351 355 357 358 359 347 336 334 334 333 332
348 348 348 348 349 350 350 351 350 350 352 343 335 334 332 332 332 344 346 347 347 347 346 346 347 347 347 347 347 346 348 349 350 353 353 354 354 353 354 356 358 358 359 360 356 352 352 351 349 348 349 349 349 351 353 355 351 352 352 351 351 350 353 352 351 353 352 353 354 350 344 350 353 351 352 354 355 356 357 343 335 333 333 332 330
348 349 349 349 348 349 349 349 349 348 351 338 334 332 330 329 332 344 344 345 344 344 344 345 345 346 347 347 347 347 347 348 352 354 356 355 353 353 352 352 354 356 357 361 351 352 357 354 352 350 350 351 347 352 354 354 355 357 358 355 353 352 350 349 346 348 348 353 353 352 348 349 354 349 351 354 354 353 354 355 341 336 333 330 329
347 346 346 346 348 348 348 348 347 347 348 341 330 328 327 327 333 342 343 343 344 344 345 346 346 347 347 347 347 346 347 347 346 336 340 356 352 351 351 350 351 351 353 356 347 342 342 340 339 340 339 337 336 335 335 338 351 354 355 353 349 351 349 344 345 345 347 351 351 354 351 347 350 350 349 351 351 350 351 352 354 341 334 332 329
346 347 347 347 347 346 347 347 347 346 347 345 331 325 324 325 336 342 341 341 341 342 343 345 345 346 347 352 351 347 346 347 340 335 334 349 350 351 350 349 349 349 350 353 355 355 340 337 336 336 336 336 336 336 336 335 337 349 352 347 349 350 348 346 344 346 347 347 351 354 349 346 350 350 347 349 349 349 349 352 353 347 334 333 330
347 348 347 345 345 345 346 347 349 348 347 346 331 326 324 323 332 341 341 340 340 340 341 342 344 345 345 349 351 350 349 348 334 333 332 349 348 349 350 349 347 347 349 351 352 354 351 349 349 347 348 344 349 350 348 340 342 350 354 353 352 349 346 346 346 345 343 345 350 355 346 346 345 347 348 345 341 346 348 348 347 350 350 351 350
Wind_Speed
5 5 4 4 4 4 4 3 4 3 2 3 2 2 2 2 2 1 1 1 1 2 2 2 2 2 3 4 4 4 4 3 3 2 2 2 3 5 10 11 10 10 10 9 9 9 10 9 8 7 6 4 3 3 4 3 4 5 5 6 6 6 7 7 7 8 7 8 7 7 7 7 7 7 7 6 7 7 7 8 7 7 7 7 7
5 5 6 5 4 4 3 3 3 5 6 6 3 4 3 3 2 2 2 2 2 2 2 3 3 3 3 4 4 4 3 4 4 3 2 2 3 4 10 11 11 11 10 10 10 10 10 10 9 8 8 6 4 3 2 2 3 3 3 5 6 6 7 7 6 7 7 7 7 7 6 6 8 7 6 6 6 6 6 6 6 6 7 6 6
5 5 4 4 4 4 4 4 3 5 6 6 3 3 3 3 3 3 2 2 2 2 2 3 3 4 3 4 5 4 4 4 3 3 3 3 3 3 6 11 11 11 11 11 10 11 11 10 10 9 9 8 6 5 4 3 2 1 2 3 4 5 6 6 6 7 7 7 6 6 5 6 5 5 7 6 6 6 5 5 6 5 5 6 5
6 5 5 5 5 5 4 4 4 4 4 4 3 3 4 3 3 2 2 2 3 3 2 3 3 4 3 5 4 4 4 4 4 3 3 3 3 4 4 5 11 12 12 12 11 11 11 10 10 10 8 8 7 6 5 4 2 1 1 1 3 5 4 5 6 6 7 6 6 6 5 5 4 4 5 5 6 5 5 5 5 5 5 5 5
5 6 6 6 5 5 4 5 5 4 4 4 4 3 2 2 3 3 3 3 3 4 3 3 4 4 4 5 4 5 4 4 4 3 4 4 3 3 4 4 5 11 13 12 12 11 11 11 11 10 10 9 8 7 6 5 4 3 2 2 2 1 3 4 4 5 5 6 5 5 5 4 5 4 4 4 3 4 4 4 4 4 5 5 5
4 6 5 5 5 5 5 5 4 4 4 5 4 4 4 3 4 3 4 4 5 5 4 4 4 3 4 4 4 4 4 5 4 4 4 4 3 4 4 4 4 4 6 12 12 11 12 11 11 11 10 10 9 8 7 6 6 4 4 3 2 2 2 3 4 4 5 5 5 4 4 4 3 4 3 3 2 5 3 3 4 4 4 4 4
6 6 6 5 5 5 5 5 4 4 4 4 5 4 4 5 4 4 4 4 5 5 5 4 4 4 4 4 4 4 4 5 5 5 4 4 3 4 4 4 4 4 4 4 9 12 11 11 11 11 11 10 9 9 8 8 7 6 5 5 3 3 3 3 4 5 4 5 5 5 4 3 3 3 3 2 2 2 3 3 4 3 3 3 3
7 7 6 6 5 5 5 4 5 5 5 5 5 5 5 4 5 5 5 5 4 4 3 4 3 5 4 4 4 4 4 4 5 5 4 3 4 4 4 4 4 4 5 4 3 4 9 11 11 11 11 10 9 9 9 9 8 8 7 7 5 5 4 4 4 4 4 4 5 6 5 4 3 3 3 2 2 1 3 1 2 4 3 3 2
6 7 6 6 5 5 4 5 6 6 5 5 5 5 5 4 5 6 5 4 2 4 3 3 4 4 4 5 4 4 5 5 4 4 3 4 4 4 4 4 5 7 5 6 5 3 7 11 11 12 11 11 10 10 10 9 9 9 9 8 7 6 5 5 5 5 6 5 6 7 7 6 4 3 3 3 2 2 4 4 1 3 3 3 3
7 7 6 6 6 5 5 6 6 6 5 5 5 5 5 5 5 5 4 3 3 3 4 3 3 4 4 5 5 4 5 4 3 3 3 3 3 3 4 3 5 5 5 5 5 5 4 8 11 12 12 12 11 10 10 10 10 10 10 9 9 8 7 7 6 5 6 7 6 7 7 7 6 5 4 3 3 3 4 4 3 2 2 1 1
7 7 6 6 6 6 6 6 6 6 6 5 5 6 6 6 6 3 3 4 4 4 4 3 3 3 4 6 6 5 3 2 1 1 1 2 2 3 2 3 3 4 5 5 5 5 6 6 6 5 6 12 11 11 11 11 10 10 10 10 9 8 9 8 7 6 6 7 8 8 7 8 7 6 6 4 4 3 4 4 5 5 4 3 3
8 8 7 7 6 6 6 6 6 6 6 6 6 6 7 7 6 5 4 3 4 3 3 3 3 3 4 4 2 2 1 0 0 1 1 1 2 2 2 2 3 3 4 5 5 5 5 6 6 5 5 7 12 11 11 11 11 10 10 10 10 10 10 9 9 8 7 8 7 8 7 8 7 8 7 7 5 4 4 4 4 3 4 3 3
8 9 8 7 6 6 6 6 6 6 6 7 7 7 6 5 4 4 5 4 3 3 3 3 2 3 2 2 2 2 1 1 1 1 1 1 2 2 2 3 3 3 3 3 4 5 4 5 5 4 4 4 6 11 12 11 11 11 11 11 11 11 11 10 9 9 9 9 8 7 8 8 9 7 8 7 7 6 5 5 4 3 3 3 2
8 8 8 8 6 6 7 7 7 7 6 6 6 6 6 5 4 3 3 4 3 2 3 4 0 3 0 2 3 2 1 1 1 1 1 2 2 2 2 4 3 3 3 3 4 5 5 4 4 5 5 5 5 5 6 8 9 12 12 11 11 11 11 11 10 10 9 9 8 7 8 8 8 9 8 8 7 6 5 5 4 4 3 3 3
7 9 8 9 7 7 7 6 7 6 7 7 6 6 6 6 5 5 3 2 3 3 4 4 2 1 1 2 2 3 3 3 1 0 1 1 2 2 3 3 4 3 3 4 4 4 4 4 5 5 5 5 4 5 5 6 7 10 12 12 12 12 12 12 12 11 10 9 9 8 8 8 8 10 9 8 8 7 6 5 4 4 3 3 3
8 9 8 8 8 8 7 6 7 6 6 7 7 7 6 5 5 5 4 4 2 2 3 5 4 5 2 0 1 1 3 3 3 3 0 1 2 3 3 3 3 3 2 4 5 4 4 4 6 5 5 5 4 4 4 5 8 11 12 12 12 12 13 13 13 12 11 11 9 8 8 9 9 9 9 9 8 8 7 6 5 4 4 4 4
8 9 7 8 8 7 7 7 7 7 6 6 7 7 7 5 5 5 5 5 3 2 1 3 5 4 4 3 2 1 3 3 2 4 0 1 3 4 3 3 4 3 3 4 4 4 3 4 5 4 5 5 4 4 4 5 5 6 7 11 12 13 14 13 13 13 12 11 10 9 9 9 9 9 9 10 9 9 8 8 7 6 5 5 5
7 8 8 7 8 9 7 6 7 7 7 6 6 6 5 6 5 5 6 6 5 2 2 1 3 4 4 2 3 1 2 1 1 3 2 3 2 3 4 5 4 4 4 4 5 4 3 4 4 5 5 5 5 4 5 5 5 4 4 5 11 13 14 14 14 13 12 11 11 10 10 10 10 10 10 10 10 10 10 9 8 8 7 6 6
8 8 8 7 7 8 7 8 6 5 6 5 6 6 5 6 4 5 5 4 4 4 5 4 2 3 4 3 1 2 3 3 3 1 3 1 3 3 4 4 4 5 5 5 5 4 4 4 5 5 5 5 5 5 4 5 6 6 8 9 10 11 13 14 14 13 12 11 11 11 10 11 11 11 10 10 11 11 11 10 9 9 8 8 7
8 7 7 7 7 7 7 5 6 6 6 7 6 5 5 4 5 6 5 5 6 6 6 4 5 3 2 3 3 2 3 1 2 3 2 2 3 1 3 3 3 5 5 5 5 5 5 4 5 5 4 5 4 4 5 5 5 5 5 10 9 11 12 12 13 13 13 12 12 11 11 11 12 12 11 10 11 12 11 11 10 10 9 9 8
6 7 7 7 7 7 8 7 7 5 6 5 6 6 7 6 5 5 6 5 5 6 5 6 4 6 2 2 1 1 2 0 1 2 3 2 3 2 3 1 2 4 4 4 4 4 5 5 4 5 4 4 4 5 5 4 5 5 5 9 11 10 11 12 13 13 13 12 12 11 11 12 12 11 10 9 10 11 11 11 11 11 10 10 9
7 7 7 7 7 6 7 7 7 5 6 6 6 6 6 6 6 6 5 6 5 5 7 6 5 4 4 3 3 1 1 1 1 2 1 1 4 3 1 3 4 3 1 4 5 5 5 4 4 5 4 4 4 4 5 5 5 4 6 9 11 11 11 11 11 12 12 11 11 11 11 11 11 11 10 10 10 11 11 12 12 12 11 10 10
8 7 6 7 7 6 6 6 6 5 5 5 6 6 6 6 5 5 5 6 5 6 5 4 4 4 4 4 5 4 5 5 4 4 4 2 0 3 3 2 3 4 2 1 2 3 4 3 4 4 4 4 4 4 5 5 6 7 9 10 10 11 11 11 10 11 11 11 10 10 9 9 10 11 11 10 11 10 11 12 12 12 12 11 11
6 7 7 8 6 6 6 6 6 6 6 5 5 5 5 4 4 4 5 5 5 4 5 5 4 3 3 3 4 4 3 4 4 4 5 4 3 4 3 1 2 3 3 3 2 3 3 4 4 4 3 3 4 4 4 5 5 9 8 9 10 10 11 11 11 11 11 11 10 10 10 9 10 11 11 11 11 11 11 11 11 12 13 12 11
7 8 8 8 7 6 7 7 5 5 5 5 5 6 5 5 5 5 5 6 5 5 5 6 5 5 5 3 3 3 4 3 2 3 2 2 3 3 1 1 2 2 1 1 2 1 3 4 4 4 3 4 3 4 4 4 4 7 10 6 10 10 10 10 11 11 11 12 11 11 10 11 11 11 12 12 12 12 12 11 11 12 12 12 11
8 8 7 8 7 7 6 7 6 5 5 6 6 5 6 5 5 5 6 6 5 6 5 5 4 5 3 3 3 4 4 3 3 3 3 3 2 3 2 1 1 2 1 1 1 1 1 2 3 3 3 4 4 4 4 4 4 7 10 6 7 10 10 10 10 11 11 12 12 11 11 11 12 12 13 13 13 13 12 11 11 12 12 12 12
7 6 7 7 7 7 8 7 7 5 5 5 5 5 6 5 5 6 5 5 5 5 5 5 5 5 5 5 4 3 3 3 3 4 3 4 4 3 4 3 2 1 2 1 2 4 5 2 2 4 5 4 4 4 4 5 5 7 8 6 5 8 9 10 9 10 10 11 11 11 11 11 11 12 12 12 12 13 13 12 12 13 13 14 15
6 7 7 6 6 6 6 7 6 5 5 5 6 5 5 5 5 5 6 3 5 6 5 5 6 6 6 4 3 4 4 3 4 4 4 4 4 3 4 4 4 4 1 2 2 4 2 4 2 4 4 5 5 4 5 5 4 7 8 5 4 5 9 10 10 10 10 11 11 11 12 12 12 13 13 13 13 14 13 13 14 14 14 14 15
5 6 6 6 6 6 6 7 6 5 5 6 6 6 6 5 5 6 6 5 5 6 5 5 5 5 5 6 5 4 4 3 3 4 4 4 4 4 4 6 5 4 3 2 3 3 3 4 3 2 4 4 4 3 4 5 5 5 4 5 5 4 7 10 10 10 10 10 10 9 10 12 13 13 14 14 14 14 14 14 15 16 15 15 15
5 5 6 6 6 7 6 6 6 6 6 6 6 6 6 5 6 6 6 5 6 5 5 5 5 5 5 4 4 4 4 4 4 4 4 5 4 4 5 4 5 6 5 4 5 3 3 2 4 3 1 3 3 3 4 5 6 7 5 5 5 5 8 10 10 10 10 10 10 9 9 10 12 13 13 14 14 14 14 15 15 15 15 15 15
4 3 4 5 5 6 6 6 6 6 6 6 5 5 5 5 5 5 5 5 6 6 5 5 5 5 5 6 5 5 4 4 4 3 3 3 4 4 4 4 5 6 6 4 3 3 3 4 3 3 3 2 2 3 3 4 4 7 5 5 5 7 7 6 9 8 9 9 9 9 10 10 11 12 12 12 12 12 12 12 13 13 13 14 15
5 5 5 5 5 5 5 6 7 6 6 6 5 6 5 6 5 5 5 6 6 6 6 5 5 5 6 7 6 5 4 4 4 4 3 3 3 4 4 5 5 5 4 5 6 7 2 3 2 2 3 3 1 3 3 2 3 7 5 5 5 4 4 4 6 8 9 9 9 9 10 10 10 11 11 12 12 12 12 12 13 13 13 14 14
5 5 5 4 4 4 5 5 6 4 4 4 5 5 5 6 5 6 5 6 6 6 5 6 6 6 6 7 6 6 5 5 5 4 3 4 3 3 3 4 4 4 5 6 6 7 4 2 2 2 1 1 2 4 4 3 3 4 5 4 4 4 4 4 4 6 9 9 9 10 10 10 11 11 11 12 12 12 13 13 13 13 14 15 15
6 5 5 4 3 3 3 3 2 2 5 4 4 3 4 6 7 5 5 6 7 7 6 7 6 6 6 7 7 6 5 6 6 5 5 4 4 4 4 5 5 5 5 6 6 4 7 2 2 1 2 2 3 2 5 4 4 2 4 3 3 4 4 4 3 4 8 9 10 10 11 11 11 11 12 12 12 13 13 13 14 14 14 15 15
5 6 5 6 7 7 8 8 7 4 4 5 4 7 8 8 6 7 7 7 7 7 7 7 7 6 7 6 7 6 4 6 6 6 5 5 4 5 6 5 5 5 6 6 5 5 6 5 2 2 3 3 4 4 3 3 1 2 3 4 4 3 3 4 4 4 7 10 10 10 10 11 11 11 11 12 12 13 14 14 14 13 13 14 14
7 7 7 7 5 4 4 4 6 6 7 7 7 7 9 9 11 11 10 8 8 8 9 8 8 7 8 7 8 7 6 6 6 6 5 5 5 5 6 5 5 6 5 6 6 6 5 5 3 4 2 2 4 3 1 1 2 3 4 2 2 4 4 4 5 5 6 8 8 9 10 10 11 11 11 12 12 13 13 13 13 13 13 13 13
7 7 7 6 7 7 7 8 8 8 8 7 8 9 10 10 10 11 11 9 9 9 9 8 9 8 8 9 8 7 7 7 7 6 6 7 6 5 6 5 5 5 4 5 6 5 5 6 4 2 1 2 2 2 1 3 2 2 2 4 4 3 3 3 3 4 6 7 9 10 10 11 11 11 12 12 12 12 12 12 12 12 12 13 13
7 7 8 7 7 8 8 8 8 8 8 8 9 10 10 11 10 10 9 9 9 9 9 9 9 9 9 9 9 8 8 8 8 7 7 8 6 6 6 6 5 5 5 5 4 5 5 6 6 5 2 3 3 3 2 3 4 3 3 3 2 3 3 4 4 4 4 4 3 5 7 8 11 12 12 12 12 11 11 12 12 12 12 13 14
8 8 8 8 7 8 9 9 9 9 9 9 9 10 10 8 8 7 8 8 9 8 8 9 9 9 10 9 9 9 9 9 10 9 8 8 7 8 8 7 6 6 6 5 5 6 5 5 5 5 4 3 3 5 1 1 2 3 4 2 4 2 3 4 5 3 3 4 7 8 7 6 6 5 7 10 10 11 11 12 12 13 13 14 14
8 9 8 8 7 8 9 9 9 8 8 8 7 7 6 7 7 4 3 5 7 9 10 9 10 10 10 11 11 10 10 11 9 9 9 8 7 8 7 6 6 7 6 6 5 5 5 5 6 6 4 5 2 3 0 1 1 2 3 4 6 5 5 3 4 3 1 2 2 2 3 4 5 7 7 7 9 10 10 10 12 12 13 13 13
7 8 9 8 8 8 8 9 9 8 8 8 7 7 7 7 3 2 6 12 11 10 10 10 10 10 10 10 12 11 12 14 15 14 12 11 8 8 8 8 7 8 7 6 6 6 6 5 5 4 4 4 4 3 3 4 5 7 3 4 5 4 2 2 3 3 4 3 2 2 3 2 3 3 2 3 4 6 8 10 9 12 13 12 13
7 7 8 8 8 9 9 9 9 8 8 8 11 16 13 6 5 8 11 11 10 9 8 8 9 9 10 10 10 15 16 17 18 19 19 18 17 12 9 9 9 8 8 7 7 7 7 7 7 6 6 6 6 6 6 6 5 2 2 3 5 4 1 4 3 4 3 3 3 4 3 2 3 3 2 3 3 4 3 4 5 6 8 11 12
9 8 8 9 9 9 10 9 8 7 7 7 14 15 14 14 10 11 11 11 12 11 10 8 9 10 10 10 10 13 15 17 17 20 19 20 20 20 19 16 13 11 8 8 7 7 7 7 6 6 7 8 7 6 7 6 3 5 6 5 6 2 5 5 7 2 2 4 3 2 3 1 3 3 3 3 4 3 3 5 8 10 11 12 12
9 8 8 9 9 9 8 9 9 8 8 10 13 13 14 15 18 13 10 10 9 10 11 11 10 10 10 10 9 9 10 12 12 13 18 21 21 21 21 19 18 18 16 13 10 7 8 7 6 8 7 8 8 6 6 4 5 5 5 5 6 7 6 6 4 6 2 4 4 2 4 1 1 2 4 4 4 3 5 7 10 11 11 12 12
8 8 10 10 10 9 9 9 10 9 9 10 12 14 15 17 19 17 10 11 11 10 9 10 10 9 9 9 10 9 10 15 14 13 12 14 19 22 21 21 20 20 19 19 17 12 9 10 10 9 9 8 8 7 7 6 5 6 5 5 5 6 6 7 6 6 2 5 2 2 5 3 2 3 5 4 5 4 5 8 12 12 11 12 12
7 8 8 9 9 8 9 9 9 9 9 9 13 13 12 14 14 17 8 9 11 13 12 11 9 10 11 11 10 11 11 12 12 13 13 13 12 13 14 14 13 17 19 19 19 19 14 10 11 11 10 9 9 9 9 8 7 7 7 7 7 6 7 9 5 4 2 5 3 1 3 4 3 4 5 5 4 4 5 8 10 10 11 12 13
8 9 9 10 9 10 9 9 9 10 10 12 12 13 13 13 13 14 9 11 10 11 12 13 15 14 13 11 13 13 12 13 12 13 12 13 12 12 13 12 12 12 12 12 11 10 11 10 10 11 9 10 11 10 7 8 10 9 9 8 9 8 3 2 0 2 2 3 3 3 5 1 1 3 5 5 5 4 4 6 8 11 11 12 9
6 6 6 7 8 9 10 10 9 10 10 12 12 12 13 12 13 8 9 9 11 10 11 12 13 12 13 14 14 13 14 14 17 21 18 13 13 14 13 13 13 12 12 11 15 14 13 11 11 11 9 9 11 10 9 7 7 4 3 3 4 4 5 3 4 2 4 2 5 5 4 3 3 6 6 4 3 4 4 4 6 10 11 8 7
6 7 7 8 7 7 8 9 9 10 10 10 12 12 12 12 9 6 7 9 10 11 12 12 13 14 13 13 14 14 14 15 18 19 19 21 14 14 14 14 13 11 12 11 14 16 17 16 16 16 16 16 14 13 11 12 9 7 5 5 5 4 5 5 4 4 5 3 4 6 4 5 3 5 6 3 3 4 4 5 5 5 3 3 4
7 7 6 7 6 7 8 9 8 8 8 8 12 12 13 12 12 8 8 10 11 12 11 11 11 12 15 24 22 16 15 16 19 19 20 20 16 15 15 14 14 13 11 9 6 8 13 15 16 16 15 14 12 10 9 10 11 10 9 9 6 6 6 5 6 5 2 2 4 5 2 4 2 3 5 3 3 3 4 3 2 1 1 2 5
7 6 5 5 6 6 7 8 9 10 9 8 10 11 12 12 11 8 8 10 11 12 11 11 10 11 13 18 27 24 19 19 20 19 20 19 17 16 15 14 14 15 13 11 10 9 6 6 4 5 3 3 4 6 8 14 15 12 8 7 5 7 6 5 5 2 3 4 5 7 4 2 3 2 2 3 4 2 1 1 2 1 2 3 4
Wind_Direction
184 188 179 186 183 183 184 184 139 111 268 288 271 209 186 179 186 199 179 249 267 267 271 283 287 282 273 286 286 282 285 289 278 251 224 211 212 219 215 210 211 211 213 219 222 225 229 227 219 220 223 224 185 166 134 124 113 105 108 100 93 86 85 86 94 95 92 90 88 89 86 84 84 88 100 113 115 116 119 122 122 124 125 125 122
198 186 194 196 185 183 176 184 162 137 190 234 251 221 182 183 179 198 218 229 255 262 272 284 291 286 267 276 280 285 288 284 275 245 217 206 209 218 217 211 210 212 213 218 226 227 229 232 227 224 227 220 216 205 166 153 143 124 111 110 99 94 96 97 102 104 99 95 95 94 88 86 91 82 96 110 119 119 117 119 119 122 123 128 127
191 183 188 197 189 187 180 173 180 164 169 199 191 201 185 181 183 195 210 221 249 271 277 287 288 282 277 278 278 286 285 273 266 239 222 208 203 209 224 216 211 212 213 216 225 232 231 233 233 231 228 223 220 214 201 198 182 163 131 113 105 106 108 103 107 110 110 101 97 95 92 82 79 86 105 108 112 118 124 126 126 123 118 119 123
191 188 199 209 211 196 175 181 190 190 186 166 156 190 191 184 181 193 213 237 265 273 266 269 275 275 279 271 276 281 278 272 263 244 231 209 201 206 212 220 216 214 214 215 222 231 234 235 237 238 235 232 224 221 213 220 223 211 167 119 126 117 113 118 114 118 119 114 112 105 99 90 86 110 103 106 106 119 119 129 133 133 130 130 131
183 188 205 209 208 202 184 190 202 203 205 194 155 173 180 178 213 218 233 244 258 266 261 252 260 268 264 270 272 276 274 270 259 249 234 217 198 202 205 214 214 216 216 216 220 228 234 236 239 240 238 237 233 226 223 224 230 229 225 163 136 140 132 128 131 126 130 131 124 127 118 113 109 106 125 119 104 111 122 131 135 147 148 145 140
169 189 192 198 203 203 198 198 192 199 209 212 194 172 208 199 218 219 237 238 245 254 258 262 260 263 262 265 268 267 275 276 263 250 239 224 198 194 200 205 208 207 216 218 219 226 234 236 240 241 241 240 239 238 231 228 231 229 233 208 222 167 163 152 148 139 136 139 137 125 129 117 117 116 118 126 166 131 99 133 131 141 152 157 162
185 181 188 194 197 201 206 208 172 206 211 210 209 208 209 217 218 224 233 238 243 252 259 265 272 273 270 270 273 276 271 267 267 259 235 226 189 197 194 198 201 201 204 212 222 223 232 237 240 242 243 241 240 238 238 234 231 231 231 228 219 209 224 194 172 166 166 153 147 143 138 136 117 113 108 107 106 141 130 113 127 130 146 156 159
186 178 178 191 198 199 203 183 184 206 210 205 203 212 215 221 224 223 226 236 243 258 242 254 256 269 273 272 267 267 264 264 265 261 250 215 208 192 190 197 197 200 202 207 219 227 235 238 238 242 244 244 243 240 240 236 233 232 228 229 225 229 224 217 195 193 188 182 169 161 158 157 153 131 115 112 122 148 162 165 139 122 141 138 142
185 173 175 187 197 194 193 193 195 201 199 203 208 213 213 221 228 222 219 231 230 263 262 242 261 267 272 269 265 259 262 257 264 261 243 207 200 195 187 195 201 207 208 212 216 225 231 239 240 240 244 246 244 242 240 242 237 232 232 229 225 225 231 231 227 208 196 201 191 184 169 170 175 177 143 139 148 159 188 176 136 163 142 153 142
185 175 177 183 193 196 192 196 196 188 185 196 208 205 211 222 225 213 209 215 231 247 262 266 271 280 283 284 279 257 258 262 252 244 199 207 191 195 196 186 198 203 206 208 212 216 226 239 246 244 242 243 245 243 242 242 242 238 233 232 228 225 229 231 228 218 212 208 205 201 187 178 177 179 175 175 165 167 184 200 176 169 183 183 181
187 181 167 186 185 189 195 194 193 183 181 187 196 204 210 217 229 221 204 211 219 229 244 254 272 287 294 294 289 282 273 244 191 159 190 194 191 186 175 197 199 206 212 213 216 219 225 232 238 244 245 244 244 244 245 245 244 244 241 238 238 232 230 229 230 227 225 218 215 204 200 191 183 181 184 189 181 182 182 191 205 206 210 200 203
187 184 185 190 189 186 191 188 188 185 182 191 201 204 209 215 223 231 239 240 227 233 234 238 262 276 289 303 293 295 247 137 147 148 142 169 174 167 188 177 200 211 214 216 222 221 226 229 232 235 239 246 246 245 245 245 245 245 245 245 240 235 235 233 230 227 226 230 220 218 211 201 192 189 186 188 196 201 189 204 194 198 187 188 180
185 186 191 198 184 184 186 186 189 191 191 201 200 207 207 206 210 223 235 245 260 221 226 207 248 308 291 303 341 346 343 188 131 136 163 154 149 182 169 197 204 208 218 219 217 224 224 226 227 230 230 227 240 244 243 243 244 243 243 243 245 242 235 233 233 231 224 229 233 217 220 205 200 202 194 196 197 205 204 205 210 218 218 219 226
187 183 188 195 184 184 188 191 188 195 199 195 194 198 204 200 193 216 230 237 245 193 183 139 170 211 261 322 346 327 11 11 49 159 155 156 160 188 183 212 214 210 214 220 226 225 226 221 222 227 225 221 221 227 237 238 238 238 238 239 240 242 241 237 236 235 230 229 228 229 224 219 209 201 209 202 203 209 208 215 220 220 226 245 246
191 185 190 190 186 180 189 188 189 193 198 196 196 198 196 193 185 202 224 230 241 224 198 193 223 124 125 75 351 359 331 356 316 281 181 160 155 190 198 215 225 217 210 218 225 228 228 226 225 226 225 223 215 213 219 226 228 231 235 236 236 238 237 237 237 237 234 231 230 227 226 225 212 204 212 208 208 211 214 218 222 229 234 244 247
196 189 188 185 185 186 185 187 190 191 192 195 195 201 197 194 192 200 197 240 215 280 197 182 167 141 116 152 219 105 332 294 295 295 298 205 194 208 203 220 223 216 188 219 221 219 227 227 228 223 224 223 220 214 216 216 222 226 228 230 229 230 234 233 233 234 234 233 230 228 226 224 223 216 208 211 217 214 216 216 217 225 226 233 241
200 196 185 184 185 184 184 187 187 190 191 196 197 203 201 194 185 189 191 209 233 235 298 173 194 188 132 106 68 33 224 254 2 284 282 228 227 213 209 218 221 214 216 228 227 224 220 222 226 223 224 221 220 220 220 220 216 220 222 224 226 222 225 229 230 230 231 233 229 225 225 223 224 220 211 213 216 220 221 216 216 217 219 222 228
201 199 193 180 184 186 179 173 188 187 193 197 199 197 191 192 188 187 199 204 215 197 263 230 217 202 214 172 167 169 192 248 136 277 313 231 263 217 214 217 215 215 219 231 229 228 213 227 219 227 222 219 217 219 220 219 216 214 220 224 225 222 220 222 226 228 228 230 228 223 222 225 223 222 216 210 209 215 223 217 215 216 216 219 224
207 204 202 190 184 185 181 185 182 175 187 184 190 195 194 194 179 185 204 193 173 225 234 256 2 237 221 208 168 166 155 143 217 59 327 319 233 236 225 213 213 216 223 228 232 230 225 219 223 224 222 221 216 218 218 221 220 218 216 225 225 224 223 222 223 227 228 227 227 221 216 222 223 220 218 211 206 212 218 220 217 217 219 220 222
210 202 205 203 190 188 184 175 178 183 182 195 197 195 194 195 187 195 198 190 182 204 237 207 210 266 205 219 227 150 172 129 163 180 169 279 312 296 229 236 222 230 230 234 231 232 235 221 228 227 227 224 217 215 217 216 218 217 218 217 216 222 222 222 224 226 227 226 225 222 217 220 224 221 219 215 204 209 216 220 220 224 224 223 224
205 205 206 211 203 193 189 187 188 180 188 188 196 193 196 191 188 191 197 199 196 207 207 221 196 225 186 261 161 169 149 109 151 127 168 186 269 256 291 328 214 237 228 234 235 230 233 234 230 234 227 228 214 213 213 212 213 213 222 216 215 216 221 221 224 224 224 224 223 219 212 218 221 220 217 215 207 207 213 219 222 220 225 225 227
203 204 207 211 215 200 196 191 190 180 191 185 189 194 197 196 194 199 199 207 201 199 201 208 199 203 199 171 178 73 62 138 161 138 49 176 247 275 251 288 287 285 223 222 225 230 231 235 237 236 230 229 215 209 207 209 212 210 213 214 218 217 220 223 224 221 221 224 224 222 215 216 217 220 219 217 217 217 218 221 224 227 224 229 231
200 202 203 209 216 213 206 202 196 192 193 180 192 196 197 196 200 198 204 201 195 195 207 197 180 176 176 178 197 192 187 185 201 203 199 183 286 268 257 211 236 290 272 292 247 238 233 232 232 235 230 229 214 206 206 210 209 213 210 209 214 217 215 218 219 220 219 222 227 228 223 214 216 220 221 221 222 220 222 223 227 226 227 225 227
195 197 202 204 208 214 213 208 205 202 204 191 194 198 196 194 191 189 202 203 195 188 199 204 198 194 197 183 193 205 223 206 196 183 182 211 199 250 270 311 252 232 285 311 212 224 226 227 227 232 231 224 217 206 204 209 214 216 215 214 212 214 213 211 213 216 216 217 222 225 227 219 213 215 217 219 221 222 224 224 223 226 229 227 229
200 201 201 195 199 209 212 213 211 207 206 198 202 196 196 195 193 198 199 195 193 189 189 204 200 202 211 201 192 184 216 229 186 177 199 146 182 235 277 177 236 306 313 345 299 283 214 227 218 229 220 216 214 204 208 212 213 215 217 216 215 215 215 214 214 215 213 214 217 222 224 225 217 212 214 218 220 224 226 227 223 221 225 229 229
197 203 191 189 196 205 208 215 214 207 203 203 202 199 194 200 195 201 205 209 191 192 199 207 207 219 207 194 198 199 218 202 195 170 170 156 163 210 211 187 190 260 292 292 322 308 277 223 223 217 216 213 211 200 208 210 216 220 217 222 213 216 217 217 220 222 218 217 219 222 226 227 226 225 225 224 224 224 225 225 225 227 226 227 230
198 197 188 188 190 199 209 215 215 205 206 205 207 201 199 201 201 207 211 204 204 200 204 205 213 212 209 206 210 210 220 205 191 206 185 196 186 178 170 234 271 201 265 291 298 223 245 295 193 206 209 205 205 207 204 209 219 212 213 219 220 212 217 219 222 225 224 224 224 225 228 230 231 229 229 231 232 233 231 228 227 230 234 231 232
194 195 194 184 186 189 194 210 210 204 206 207 207 202 198 200 206 203 217 201 203 208 215 208 221 219 215 211 205 233 215 213 206 208 206 203 193 167 175 177 215 279 324 275 287 271 214 233 279 210 203 206 212 206 208 213 218 212 210 216 214 210 211 216 219 222 223 225 226 226 227 230 231 232 233 232 233 233 232 228 228 233 237 239 238
182 189 189 192 189 188 194 200 197 199 205 210 208 205 196 204 207 206 215 207 204 214 213 212 223 220 219 212 211 224 228 209 213 215 208 204 200 186 187 196 182 200 258 268 258 243 265 199 229 271 196 210 210 203 204 217 216 203 208 211 212 213 205 211 215 219 221 223 226 226 225 230 234 234 236 237 238 239 239 238 237 238 240 241 243
180 184 186 190 192 194 193 198 199 195 203 207 209 209 201 208 210 212 218 199 208 217 214 216 220 213 222 221 210 224 224 211 216 215 206 205 193 192 198 200 170 197 201 238 270 215 255 250 224 252 189 225 205 208 211 222 215 211 211 211 214 218 211 212 218 222 223 224 225 228 228 229 232 235 237 239 240 241 242 242 243 243 244 244 245
173 169 182 190 188 195 194 197 197 200 198 207 206 212 204 210 210 219 211 198 209 218 219 212 218 208 213 223 210 224 215 225 221 216 212 197 204 191 197 178 190 199 196 187 254 279 194 264 251 248 268 251 210 212 219 222 209 210 213 213 217 221 216 221 224 228 228 228 229 230 233 233 233 235 238 240 241 242 243 245 247 250 250 248 249
149 147 151 180 193 204 198 201 202 201 200 205 204 210 209 216 213 218 213 201 212 220 227 216 221 208 211 221 216 216 213 218 229 223 214 208 196 197 189 185 193 190 171 184 215 257 218 232 268 283 238 251 213 217 229 237 206 202 215 216 219 215 214 228 218 225 229 229 230 232 234 237 239 240 240 240 239 240 241 242 243 244 245 247 248
169 157 166 181 158 173 192 218 219 206 203 209 206 205 206 216 219 218 214 209 215 226 223 227 224 217 210 217 220 218 208 218 228 227 223 213 199 206 191 183 190 174 174 188 216 257 280 221 245 259 320 257 258 202 219 220 212 206 212 219 209 212 217 222 228 221 226 230 232 234 237 238 240 242 243 243 242 240 241 241 241 241 242 243 244
168 157 147 146 141 117 93 67 32 141 179 194 195 192 238 243 227 213 219 209 218 228 220 230 221 223 216 217 223 222 201 218 227 231 224 215 199 204 202 198 193 189 188 177 212 220 264 288 262 237 259 205 238 205 202 211 225 194 215 209 210 211 216 216 224 233 218 228 231 234 237 239 240 242 245 247 247 247 246 245 244 242 242 242 243
182 181 162 156 163 168 173 168 185 194 196 210 197 202 205 217 245 257 228 211 214 218 220 225 226 217 224 223 227 217 208 216 223 231 224 222 206 204 213 202 208 200 186 196 181 213 235 262 241 265 239 205 219 233 204 207 179 190 229 230 219 210 220 219 226 238 220 224 231 236 240 243 246 247 249 251 253 253 254 253 251 248 246 246 246
182 184 183 184 169 174 204 206 211 204 192 189 199 215 226 214 210 221 231 222 215 218 218 221 222 218 220 224 230 219 211 215 220 222 221 217 211 207 217 204 213 211 190 191 203 207 202 234 250 214 245 223 248 251 239 211 206 194 220 244 229 230 227 221 229 243 243 237 241 244 246 246 248 251 252 253 254 254 255 255 255 256 256 254 253
197 186 192 185 184 182 194 200 202 210 213 206 201 203 213 219 216 218 221 220 217 219 221 223 223 218 220 223 226 220 210 218 220 221 214 214 211 205 215 206 209 211 197 194 202 200 201 216 249 236 219 242 260 286 218 209 214 215 215 228 230 234 240 242 244 243 256 251 244 243 243 244 246 247 248 250 251 253 254 256 257 256 256 257 256
202 199 197 197 198 201 203 207 208 210 211 211 216 219 218 218 214 216 218 218 221 220 222 223 226 224 224 224 226 220 215 216 223 216 214 215 205 207 211 209 208 203 203 202 194 199 210 228 226 267 201 230 255 251 212 195 205 216 230 234 243 240 241 248 232 235 236 235 234 228 235 242 243 246 250 252 254 257 257 257 258 257 256 255 254
197 198 203 198 202 204 209 210 214 215 214 214 216 221 228 234 236 228 223 223 225 228 226 226 225 226 228 229 226 223 221 218 222 218 212 214 210 213 209 208 198 198 202 196 192 194 203 219 233 232 263 251 218 258 98 201 221 235 230 228 260 214 212 220 250 237 226 241 241 242 252 260 260 252 244 244 249 251 253 254 256 254 255 254 254
215 209 204 205 202 203 211 211 216 214 215 218 216 219 224 229 234 262 338 308 271 247 234 226 223 223 223 227 228 222 222 224 220 223 213 212 208 216 208 203 195 197 203 195 189 191 198 212 222 226 213 248 226 227 270 113 153 235 212 204 229 236 229 205 231 249 224 219 239 230 226 241 247 246 254 254 248 246 247 253 252 253 254 254 253
216 219 214 212 209 209 210 211 214 211 214 219 221 220 228 238 244 56 249 245 242 243 239 232 225 222 221 222 226 225 225 224 219 219 214 209 202 215 214 198 203 203 207 197 198 191 203 207 227 215 230 230 234 237 228 206 208 223 193 189 231 235 251 281 246 215 222 231 250 256 256 207 230 231 215 230 233 226 238 234 254 250 250 252 252
208 208 210 211 214 214 212 213 212 209 213 216 220 226 228 207 164 209 226 236 240 244 242 239 234 229 228 224 225 225 225 224 223 221 219 215 213 210 208 200 202 201 202 201 197 198 196 202 214 202 213 229 224 205 212 218 219 192 171 179 222 220 187 253 280 237 192 192 214 245 241 207 215 240 208 237 242 210 245 216 233 240 246 244 247
221 219 215 214 217 219 218 216 212 211 212 220 219 216 217 208 194 217 223 230 234 235 236 234 237 237 234 230 229 230 230 230 229 226 222 218 218 218 215 204 197 197 194 194 205 193 194 207 205 201 213 225 227 205 214 222 196 206 213 192 215 169 205 219 248 292 185 179 191 222 267 196 202 232 233 241 249 248 241 247 252 249 250 256 259
222 220 218 218 219 218 219 218 220 218 217 221 214 212 212 204 209 216 215 226 228 230 235 237 239 241 241 242 238 231 227 228 229 230 230 225 221 220 220 215 204 202 201 200 201 201 201 206 204 208 203 216 225 197 216 208 220 210 215 201 199 201 203 216 212 232 180 165 151 192 249 213 201 236 256 250 248 240 246 252 251 252 256 261 267
212 214 220 221 223 221 220 222 225 225 227 222 213 208 206 206 207 217 220 223 227 231 229 233 239 238 239 241 243 239 239 225 225 227 226 230 229 227 226 226 221 216 214 213 209 211 194 208 212 212 205 210 214 218 198 195 186 208 187 207 209 206 206 211 220 228 202 179 157 200 258 251 177 217 242 242 250 239 249 244 249 255 259 264 267
209 215 217 219 221 219 220 222 227 228 230 232 222 217 215 210 207 220 225 223 228 236 236 234 231 233 235 237 236 237 234 234 230 227 226 226 227 229 229 228 227 227 222 215 217 218 210 205 208 219 216 197 212 213 208 189 174 206 187 212 197 198 198 216 212 201 132 162 196 199 255 245 227 253 254 252 239 244 243 257 263 270 270 271 271
206 209 211 213 215 215 218 220 225 229 234 230 223 221 219 217 216 225 226 235 238 240 241 241 241 239 237 234 238 239 237 235 233 225 222 223 222 224 225 226 225 223 224 219 206 209 216 216 211 219 218 202 214 212 200 191 203 209 201 207 200 202 179 83 122 206 231 189 179 152 256 206 162 237 245 252 247 248 255 263 260 265 269 270 290
217 216 222 215 216 217 217 217 220 230 236 228 223 218 216 217 218 223 228 231 237 238 238 239 239 239 240 239 239 237 237 237 235 231 228 221 220 222 223 225 226 226 226 222 218 213 212 212 215 217 217 203 203 211 204 190 198 177 115 82 93 116 157 176 225 188 238 167 189 193 241 239 186 254 261 246 253 254 257 263 259 261 270 300 304
216 217 218 216 216 217 219 220 220 229 236 226 216 215 213 212 212 226 230 238 244 246 247 246 246 243 238 236 238 239 237 237 235 230 230 230 224 221 221 223 224 224 227 224 220 216 213 212 213 214 214 215 211 214 207 188 188 164 136 136 179 162 160 207 223 218 231 174 193 208 232 262 214 246 271 257 251 268 262 258 261 269 305 274 277
220 225 218 227 227 225 227 228 223 233 239 231 215 212 212 209 211 225 229 237 244 248 252 247 247 247 243 241 237 236 237 238 235 230 228 229 231 225 221 220 221 224 225 216 205 214 217 220 219 219 218 218 210 202 191 182 173 165 166 196 183 163 202 205 229 221 217 187 208 173 197 237 203 224 266 277 259 240 247 241 248 97 144 246 257
236 231 228 241 246 233 227 228 227 233 245 247 226 219 217 213 217 228 230 241 249 251 253 253 247 247 245 246 245 242 235 235 231 227 226 226 229 229 222 217 219 222 221 210 208 205 164 176 190 191 204 174 158 153 172 176 178 184 189 197 130 177 204 201 214 195 257 236 212 167 215 231 217 208 209 297 276 226 199 99 148 195 295 309 319